Other Surface Observations
Issued by NWS Charleston, SC

Home | Current Version | Previous Version | Text Only | Print | Product List | Glossary On
Versions: 1 2 3 4 5 6 7 8 9 10 11 12 13 14 15 16 17 18 19 20 21 22 23 24 25 26 27 28 29 30 31 32 33 34 35 36 37 38 39 40 41 42 43 44 45 46 47 48 49 50
000
SXUS52 KCHS 260727
OSOCHS

MARINE OBSERVATIONS
NATIONAL WEATHER SERVICE CHARLESTON SC
300 AM EDT WED JUL 26 2017

...DOWNTOWN CHARLESTON AND HARBOR...

CITY           SKY/WX    TMP DP  RH WIND       PRES   REMARKS
WATERFRONT PRK   N/A     78  74  87 CALM      30.03F

...LAKE MOULTRIE...

CITY           SKY/WX    TMP DP  RH WIND       PRES   REMARKS
PINOPOLIS        N/A     81  75  83 NW6       29.99F

...LAKE AND SUPPLEMENTAL COASTAL OBSERVATIONS...

STATION/POSITION TIME  TEMP    WIND        PRES    WAVE   SWELL
                       AIR SEA DIR/SP/G            HT/PER HT/PER/DIR
                 (UTC) (F)     (DEG/KT/KT) (MB)    (FT/S) (FT/S/D)
FORT PULASKI     0700   78 85   10/  7/  8 1018.3
SAPELO ISLAND    0700   76        CALM     1018.0
WINYAH BAY       0630   79     220/  2     1018.0S
LAKE MURRAY      0720   78        CALM     1017.3
ACE BASIN NERRS  0645   75        CALM     1018.0S


...C-MAN AND BUOY OBSERVATIONS...

STATION/POSITION TIME  TEMP    WIND        PRES    WAVE   SWELL
                       AIR SEA DIR/SP/G            HT/PER HT/PER/DIR
                 (UTC) (F)     (DEG/KT/KT) (MB)    (FT/S) (FT/S/D)
BUOY 41004       0710   81 83  320/  6/  6 1017.1
BUOY 41008       0650   79 81  100/  4/  4 1017.3F   1/11   2/120/11
FOLLY BEACH CMAN 0700   77     290/  3/  3 1018.2F
CAPERS NS BUOY   0708   79 84  340/  8/ 12 1017.4F
FRIPP NS BUOY    0708   81 84  270/  4/  8 1018.0R
5E ST. MARYS GA  0700      78                N/A     1/11


STATION/POSITION TIME  TEMP    WIND        PRES    WAVE   SWELL
                       AIR SEA DIR/SP/G            HT/PER HT/PER/DIR
                 (UTC) (F)     (DEG/KT/KT) (MB)    (FT/S) (FT/S/D)
FRYING PAN BUOY  0710   81 82  340/  2/  4 1017.8
BUOY 41025       0650   81 84   50/ 14/ 17 1019.5R   3/ 4   2/150/10
CAPE LOOKOUT NC  0700   79      50/ 20/ 22 1018.8F
BUOY 41002       0650   82 83  200/ 10/ 12 1019.3F   3/ 6   3/230/ 6
BUOY 41010       0710   84 84  170/ 12/ 14 1018.5
ST AUGUSTINE FL  0700   78 74  210/  7/  9 1018.6S

$$




USA.gov is the U.S. government's official web portal to all federal, state and local government web resources and services.